| time (UTC) | temp F | wind direction | speed knots | gust knots | rain 1hr in | rain 24hr in | rain mn in | humidity % | barometer mb |
| 20260506044542 | 77 | 148 | 0.9 | 3.5 | 0.00 | 0.00 | 0.00 | 78 | 1006.5 |
| 20260506043042 | 77 | 154 | 1.7 | 7.0 | 0.00 | 0.00 | 0.00 | 78 | 1006.6 |
| 20260506041555 | 78 | 152 | 2.6 | 5.2 | 0.00 | 0.00 | 0.00 | 78 | 1006.4 |
| 20260506040041 | 78 | 130 | 1.7 | 6.1 | 0.00 | 0.00 | 0.00 | 77 | 1006.3 |
| 20260506034544 | 78 | 112 | 2.6 | 6.1 | 0.00 | 0.00 | 0.00 | 77 | 1006.0 |
| 20260506033040 | 78 | 142 | 1.7 | 4.3 | 0.00 | 0.00 | 0.00 | 76 | 1006.0 |
| 20260506031539 | 79 | 146 | 2.6 | 4.3 | 0.00 | 0.00 | 0.00 | 76 | 1005.8 |
| 20260506030038 | 79 | 151 | 1.7 | 4.3 | 0.00 | 0.00 | 0.00 | 75 | 1005.6 |
| 20260506024540 | 79 | 120 | 1.7 | 4.3 | 0.00 | 0.00 | 0.00 | 75 | 1005.5 |
| 20260506023038 | 80 | 116 | 2.6 | 4.3 | 0.00 | 0.00 | 0.00 | 74 | 1005.3 |
| 20260506021536 | 80 | 113 | 3.5 | 6.1 | 0.00 | 0.00 | 0.00 | 73 | 1004.7 |
| 20260506020036 | 81 | 113 | 1.7 | 5.2 | 0.00 | 0.00 | 0.00 | 73 | 1004.5 |
| 20260506014545 | 81 | 111 | 3.5 | 6.1 | 0.00 | 0.00 | 0.00 | 72 | 1004.5 |
| 20260506013038 | 82 | 117 | 1.7 | 4.3 | 0.00 | 0.00 | 0.00 | 71 | 1004.4 |
| 20260506011539 | 82 | 109 | 1.7 | 6.1 | 0.00 | 0.00 | 0.00 | 70 | 1004.0 |
| 20260506010034 | 83 | 115 | 1.7 | 6.1 | 0.00 | 0.00 | 0.00 | 68 | 1003.7 |
| 20260506004540 | 84 | 120 | 2.6 | 6.1 | 0.00 | 0.00 | 0.00 | 67 | 1003.6 |
| 20260506003033 | 84 | 113 | 2.6 | 4.3 | 0.00 | 0.00 | 0.00 | 66 | 1003.5 |
| 20260506001531 | 85 | 114 | 1.7 | 3.5 | 0.00 | 0.00 | 0.00 | 65 | 1003.4 |
| 20260506000039 | 85 | 113 | 3.5 | 7.0 | 0.00 | 0.00 | 0.00 | 64 | 1003.3 |
| 20260505234531 | 85 | 112 | 1.7 | 4.3 | 0.00 | 0.00 | 0.00 | 64 | 1003.2 |
| 20260505233030 | 86 | 115 | 3.5 | 6.1 | 0.00 | 0.00 | 0.00 | 63 | 1003.0 |
| 20260505231530 | 86 | 113 | 2.6 | 7.0 | 0.00 | 0.00 | 0.00 | 63 | 1003.1 |
| 20260505230033 | 87 | 113 | 2.6 | 6.1 | 0.00 | 0.00 | 0.00 | 63 | 1003.0 |
| 20260505224536 | 86 | 112 | 2.6 | 4.3 | 0.00 | 0.00 | 0.00 | 63 | 1003.1 |
| 20260505223039 | 86 | 111 | 1.7 | 6.1 | 0.00 | 0.00 | 0.00 | 63 | 1003.3 |
| 20260505221526 | 87 | 119 | 1.7 | 5.2 | 0.00 | 0.00 | 0.00 | 63 | 1003.3 |
| 20260505220035 | 87 | 190 | 2.6 | 6.1 | 0.00 | 0.00 | 0.00 | 63 | 1003.3 |
| 20260505214537 | 87 | 109 | 2.6 | 5.2 | 0.00 | 0.00 | 0.00 | 62 | 1003.7 |
| 20260505213028 | 86 | 180 | 1.7 | 5.2 | 0.00 | 0.00 | 0.00 | 65 | 1004.0 |
| 20260505211516 | 86 | 113 | 1.7 | 3.5 | 0.00 | 0.00 | 0.00 | 64 | 1004.3 |
| 20260505210016 | 86 | 165 | 2.6 | 7.0 | 0.00 | 0.00 | 0.00 | 67 | 1004.3 |
| 20260505204518 | 85 | 177 | 1.7 | 5.2 | 0.00 | 0.00 | 0.00 | 66 | 1004.7 |
| 20260505203008 | 85 | 115 | 0.9 | 4.3 | 0.00 | 0.00 | 0.00 | 67 | 1004.9 |
| 20260505201505 | 85 | 188 | 1.7 | 4.3 | 0.00 | 0.00 | 0.00 | 67 | 1005.2 |
| 20260505200007 | 85 | 175 | 3.5 | 6.1 | 0.00 | 0.00 | 0.00 | 68 | 1005.3 |
| 20260505194603 | 84 | 171 | 1.7 | 5.2 | 0.00 | 0.00 | 0.00 | 69 | 1005.5 |
| 20260505193056 | 83 | 175 | 0.9 | 3.5 | 0.00 | 0.00 | 0.00 | 70 | 1005.7 |
| 20260505191557 | 83 | 168 | 2.6 | 7.0 | 0.00 | 0.00 | 0.00 | 71 | 1006.0 |
| 20260505190107 | 82 | 146 | 0.9 | 6.1 | 0.00 | 0.00 | 0.00 | 72 | 1006.2 |
| 20260505184601 | 82 | 136 | 1.7 | 6.1 | 0.00 | 0.00 | 0.00 | 72 | 1006.3 |
| 20260505183053 | 82 | 196 | 3.5 | 7.8 | 0.00 | 0.00 | 0.00 | 73 | 1006.6 |
| 20260505181545 | 82 | 165 | 2.6 | 8.7 | 0.00 | 0.00 | 0.00 | 73 | 1006.7 |
| 20260505180046 | 81 | 164 | 1.7 | 7.8 | 0.00 | 0.00 | 0.00 | 75 | 1006.7 |
| 20260505174542 | 79 | 178 | 3.5 | 7.0 | 0.00 | 0.00 | 0.00 | 76 | 1006.9 |
| 20260505173041 | 79 | 153 | 2.6 | 6.1 | 0.00 | 0.00 | 0.00 | 77 | 1007.0 |
| 20260505171540 | 78 | 210 | 2.6 | 5.2 | 0.00 | 0.00 | 0.00 | 77 | 1006.9 |
| 20260505170035 | 77 | 166 | 2.6 | 6.1 | 0.00 | 0.00 | 0.00 | 78 | 1007.0 |
| 20260505164536 | 77 | 174 | 2.6 | 5.2 | 0.00 | 0.00 | 0.00 | 79 | 1007.1 |
| 20260505163030 | 76 | 174 | 3.5 | 6.1 | 0.00 | 0.00 | 0.00 | 80 | 1007.0 |
| 20260505161525 | 75 | 190 | 3.5 | 5.2 | 0.00 | 0.00 | 0.00 | 80 | 1007.2 |
| 20260505153027 | 74 | 180 | 1.7 | 7.0 | 0.00 | 0.00 | 0.00 | 81 | 1007.2 |
| 20260505151518 | 73 | 158 | 3.5 | 6.1 | 0.00 | 0.00 | 0.00 | 81 | 1007.0 |
| 20260505124503 | 71 | 167 | 2.6 | 9.6 | 0.00 | 0.00 | 0.00 | 82 | 1006.8 |
| 20260505123002 | 71 | 192 | 3.5 | 7.0 | 0.00 | 0.00 | 0.00 | 82 | 1006.7 |
| 20260505121504 | 70 | 184 | 3.5 | 7.0 | 0.00 | 0.00 | 0.00 | 82 | 1006.6 |
| 20260505114502 | 70 | 174 | 3.5 | 8.7 | 0.00 | 0.00 | 0.00 | 82 | 1006.2 |
| 20260505113100 | 70 | 191 | 3.5 | 7.0 | 0.00 | 0.00 | 0.00 | 82 | 1006.0 |
| 20260505111603 | 70 | 186 | 3.5 | 11.3 | 0.00 | 0.00 | 0.00 | 82 | 1006.1 |
| 20260505101555 | 70 | 169 | 2.6 | 7.0 | 0.00 | 0.00 | 0.00 | 82 | 1006.3 |
| 20260505100101 | 70 | 186 | 3.5 | 6.1 | 0.00 | 0.00 | 0.00 | 82 | 1006.4 |
| 20260505094557 | 70 | 187 | 0.9 | 4.3 | 0.00 | 0.00 | 0.00 | 82 | 1006.5 |
| 20260505093055 | 70 | 183 | 3.5 | 7.0 | 0.00 | 0.00 | 0.00 | 82 | 1006.5 |
| 20260505091552 | 70 | 171 | 2.6 | 4.3 | 0.00 | 0.00 | 0.00 | 82 | 1006.5 |
| 20260505090105 | 70 | 175 | 1.7 | 6.1 | 0.00 | 0.00 | 0.00 | 82 | 1006.5 |
| 20260505084550 | 69 | 175 | 1.7 | 7.0 | 0.00 | 0.00 | 0.00 | 81 | 1006.5 |
| 20260505083047 | 69 | 183 | 1.7 | 6.1 | 0.00 | 0.00 | 0.00 | 81 | 1007.1 |
| 20260505081548 | 69 | 175 | 1.7 | 4.3 | 0.00 | 0.00 | 0.00 | 81 | 1007.2 |
| 20260505080052 | 69 | 178 | 1.7 | 4.3 | 0.00 | 0.00 | 0.00 | 81 | 1007.3 |
| 20260505074543 | 69 | 186 | 1.7 | 3.5 | 0.00 | 0.00 | 0.00 | 81 | 1007.5 |
| 20260505073053 | 69 | 175 | 1.7 | 4.3 | 0.00 | 0.00 | 0.00 | 81 | 1007.7 |
| 20260505071537 | 69 | 184 | 1.7 | 4.3 | 0.00 | 0.00 | 0.00 | 80 | 1007.9 |
| 20260505070035 | 69 | 178 | 1.7 | 7.0 | 0.00 | 0.00 | 0.00 | 80 | 1008.1 |
| 20260505064534 | 69 | 169 | 2.6 | 6.1 | 0.00 | 0.00 | 0.00 | 80 | 1008.2 |
| 20260505063034 | 70 | 182 | 2.6 | 7.0 | 0.00 | 0.00 | 0.00 | 80 | 1008.2 |
| 20260505061530 | 70 | 174 | 2.6 | 7.0 | 0.00 | 0.00 | 0.00 | 79 | 1008.3 |
| 20260505060034 | 70 | 163 | 3.5 | 7.8 | 0.00 | 0.00 | 0.00 | 79 | 1008.5 |
| 20260505054532 | 70 | 175 | 3.5 | 7.8 | 0.00 | 0.00 | 0.00 | 78 | 1008.5 |
| 20260505053026 | 70 | 161 | 2.6 | 6.1 | 0.00 | 0.00 | 0.00 | 78 | 1008.4 |
| 20260505051525 | 71 | 175 | 3.5 | 7.0 | 0.00 | 0.00 | 0.00 | 77 | 1008.5 |